Weather History for KFRI - March, 2013

Change the Weather History Date:

Wednesday, March 6, 2013

  Actual Average (KMHK) Record (KMHK)
Temperature  
Mean Temperature 30 °F 39 °F  
Max Temperature 44 °F 52 °F 73 °F (2007)
Min Temperature 15 °F 26 °F 6 °F (2003)
Degree Days  
Heating Degree Days 36 26  
Month to date heating degree days 161  
Since 1 July heating degree days 4321  
Cooling Degree Days 0 0  
Month to date cooling degree days 0  
Year to date cooling degree days 0  
Moisture  
Dew Point 20 °F    
Average Humidity 70    
Maximum Humidity 99    
Minimum Humidity 35    
Precipitation  
Precipitation 0.00 in 0.08 in 0.12 in (2005)
Month to date precipitation 0.46  
Year to date precipitation 2.18  
Sea Level Pressure  
Sea Level Pressure 30.34 in    
Wind  
Wind Speed 5 mph (East)    
Max Wind Speed 13 mph    
Max Gust Speed -    
Visibility 10 miles    
Events      
T = Trace of Precipitation, MM = Missing Value Source: NWS Daily Summary

Daily Weather History Graph

Daily Weather History Graph

Search for Another Location

Airport or City:

Trip Planner

Search our weather history database for the weather conditions in past years. The results will help you decide how hot, cold, wet, or windy it might be!

Date:

Astronomy

Mar. 06, 2013 Rise Set
Actual Time 6:51 AM CST 6:25 PM CST
Civil Twilight 6:25 AM CST 6:51 PM CST
Nautical Twilight 5:54 AM CST 7:22 PM CST
Astronomical Twilight 5:23 AM CST 7:53 PM CST
Moon 2:59 AM CST 1:10 PM CST
Length of Visible Light 12h 26m
Length of Day
11h 33m
Waning Crescent, 29% of the Moon is Illuminated
Mar 6
Waning Crescent
Mar 11
New
Mar 19
First Quarter
Mar 27
Full
Apr 2
Last Quarter

Hourly Weather History & Observations

Time (CST) Temp. Windchill Dew Point Humidity Pressure Visibility Wind Dir Wind Speed Gust Speed Precip Events Conditions
12:58 AM 25.5 °F 19.9 °F 18.0 °F 73% 30.41 in 10.0 mi North 4.6 mph - N/A   Clear
1:58 AM 21.2 °F 13.6 °F 17.6 °F 86% 30.42 in 10.0 mi NNE 5.8 mph - N/A   Clear
2:58 AM 22.6 °F - 18.1 °F 83% 30.42 in 10.0 mi North 1.2 mph - N/A   Clear
3:58 AM 21.9 °F 15.7 °F 18.3 °F 86% 30.43 in 10.0 mi SSW 4.6 mph - N/A   Clear
4:58 AM 18.1 °F - 17.2 °F 96% 30.42 in 10.0 mi ENE 2.3 mph - N/A   Clear
5:58 AM 17.6 °F 10.7 °F 17.4 °F 99% 30.41 in 10.0 mi NNE 4.6 mph - N/A   Clear
6:58 AM 15.3 °F 9.6 °F 15.1 °F 99% 30.40 in 10.0 mi NE 3.5 mph - N/A   Clear
7:58 AM 21.6 °F 14.0 °F 20.5 °F 96% 30.41 in 10.0 mi ENE 5.8 mph - N/A   Clear
8:58 AM 24.8 °F 16.9 °F 21.0 °F 86% 30.43 in 10.0 mi NE 6.9 mph - N/A   Partly Cloudy
9:58 AM 28.0 °F - 21.0 °F 75% 30.44 in 10.0 mi Variable 1.2 mph - N/A   Clear
10:58 AM 31.6 °F - 20.7 °F 64% 30.43 in 10.0 mi Variable 1.2 mph - N/A   Clear
11:58 AM 36.0 °F - 19.4 °F 51% 30.41 in 10.0 mi Variable 2.3 mph - N/A   Clear
12:58 PM 39.4 °F 34.5 °F 19.2 °F 44% 30.37 in 10.0 mi SE 6.9 mph - N/A   Clear
1:58 PM 42.1 °F 39.2 °F 18.7 °F 39% 30.32 in 10.0 mi ESE 4.6 mph - N/A   Clear
2:58 PM 44.2 °F 40.3 °F 19.0 °F 37% 30.30 in 10.0 mi SE 6.9 mph - N/A   Clear
3:58 PM 44.8 °F 39.9 °F 18.7 °F 35% 30.27 in 10.0 mi SSE 9.2 mph - N/A   Clear
4:58 PM 42.4 °F 36.5 °F 19.4 °F 40% 30.25 in 10.0 mi SE 10.4 mph - N/A   Clear
5:58 PM 40.3 °F 33.0 °F 22.6 °F 49% 30.24 in 10.0 mi SE 12.7 mph - N/A   Clear
6:58 PM 36.3 °F 31.6 °F 21.9 °F 56% 30.24 in 10.0 mi Variable 5.8 mph - N/A   Clear
7:58 PM 33.4 °F 27.3 °F 23.0 °F 66% 30.24 in 10.0 mi ESE 6.9 mph - N/A   Clear
8:58 PM 31.6 °F 27.0 °F 22.6 °F 69% 30.23 in 10.0 mi East 4.6 mph - N/A   Clear
9:58 PM 28.6 °F 22.4 °F 23.9 °F 83% 30.22 in 10.0 mi ENE 5.8 mph - N/A   Clear
10:58 PM 26.1 °F 19.4 °F 24.6 °F 94% 30.22 in 10.0 mi ENE 5.8 mph - N/A   Clear
11:58 PM 28.9 °F - 25.3 °F 86% 30.21 in 10.0 mi ENE 2.3 mph - N/A   Clear